332  
ASUS43 KGLD 231359  
RWRGLD  
 
GOODLAND FORECAST AREA HOURLY WEATHER ROUNDUP  
NATIONAL WEATHER SERVICE GOODLAND KS  
800 AM MDT MON SEP 23 2019  
   
..OFFICIAL OBSERVATIONS
 
 
 
CITY SKY/WX TMP DP RH WIND PRES REMARKS
 
GOODLAND KS PTSUNNY 59 51 75 S15G29 30.11R  
HILL CITY KS SUNNY 59 52 77 W5 30.10R  
IMPERIAL NEB PTSUNNY 54 46 74 SW6 30.09R  
MCCOOK NEB MOSUNNY 59 49 69 W7 30.08S  
AKRON CO PTSUNNY 54 43 66 SW13 30.12R  
BURLINGTON CO PTSUNNY 57 48 72 S12 30.13R  
LIMON CO PTSUNNY 47 39 74 CALM 30.17R  

 
   
..UNOFFICIAL OBSERVATIONS
 
 
 
CITY SKY/WX TMP DP RH WIND PRES REMARKS
 
SHARON SPRINGS N/A 57 48 72 S12G18 N/A  
KIT CARSON CO N/A 54 47 76 MISG N/A  
YUMA CO FAIR 52 45 76 SW7 30.10R  

 
 
 
CLICK HERE TO GO TO PREVIOUS BULLETINS.

The Nexlab KS Page
The Nexlab CO Page
The Nexlab NE Page Main Text Page